Location: ???
(38.6071°N, 106.3180°E)
Time: 17:19:21
(UTC+00:00)

Daily predictions for brighter satellites

Satellite Brightness Start Highest point End
(mag) Time Altitude Azimuth Time Altitude Azimuth Time Altitude Azimuth
Cosmos 1892 Rocket 4.2 12:44:11 10° SSW 12:48:27 59° W 12:52:45 10° N
Cosmos 2227 4.3 12:45:25 10° NNW 12:51:13 88° ENE 12:56:58 10° SSE
DMSP B5D2-2 4.1 12:46:59 10° NNE 12:52:12 74° ESE 12:57:23 10° S
Cosmos 2058 Rocket 3.2 12:50:10 10° N 12:54:42 89° WSW 12:59:10 10° S
IRIS 4.2 12:50:57 10° WSW 12:55:01 72° SSE 12:57:42 10° ENE
Ariane Rocket 3.6 12:53:11 10° S 12:58:12 58° W 13:03:15 10° NNW
Cosmos 1626 Rocket 3.6 13:03:42 10° S 13:08:07 72° E 13:12:34 10° NNE
OAO 3 Rocket 3.4 13:05:12 10° W 13:09:59 57° S 13:14:51 10° ESE
H-2A R/B 3.9 13:06:08 10° SSW 13:10:56 32° W 13:15:47 10° NNW
Cosmos 2322 Rocket 2.3 13:06:04 10° SSW 13:11:40 82° WNW 13:17:19 10° NNE
Cosmos 1125 Rocket 3.7 13:06:37 10° N 13:11:48 57° ENE 13:16:51 11° SSE
Cosmos 2237 4.3 13:08:03 10° S 13:13:38 57° ESE 13:19:15 10° NNE
USA 186 4.3 13:14:10 10° SSW 13:16:49 22° W 13:19:28 10° NW
SPOT 3 Rocket 3.6 13:13:03 10° SSE 13:18:15 90° SSE 13:23:30 10° NNW
Resurs 1-3 3.6 13:14:29 10° SSE 13:18:51 88° WSW 13:23:15 10° NNW
Cosmos 2298 Rocket 4.4 13:14:48 10° NNW 13:20:06 68° WSW 13:25:23 10° S
OAO 2 Rocket 3.7 13:23:25 10° WSW 13:28:30 48° SSE 13:33:36 10° E
COSMOS 2428 3.9 13:27:57 14° SE 13:31:00 22° E 13:35:13 10° NE
Cosmos 2322 4.1 13:29:42 10° S 13:35:01 42° ESE 13:40:22 10° NE
Nadezhda 1 Rocket 4.1 13:30:28 10° N 13:36:51 66° E 13:42:27 14° SSE
SL-24 R/B - RUBIN 2 4.4 13:32:32 10° SSW 13:38:11 56° ESE 13:44:29 10° NE
Geosat 4.2 13:34:04 12° SSE 13:38:40 70° WSW 13:43:42 10° NNW
BREEZE-M DEB (TANK) 3.4 13:33:00 10° SW 13:41:39 49° SSE 13:44:25 10° ENE
Cosmos 1328 4.2 13:39:44 18° SSE 13:42:20 44° E 13:46:07 10° NNE
Atlas Centaur 2 2.9 13:38:10 10° WSW 13:43:33 40° S 13:48:32 17° ESE
Cosmos 1825 Rocket 3.8 13:41:58 16° SSE 13:45:18 51° E 13:49:38 10° NNE
MetOp-B 4.1 13:42:23 16° SSE 13:46:39 73° ENE 13:51:59 10° N
Cosmos 2333 4.4 13:41:22 10° S 13:46:46 51° ESE 13:52:15 10° NNE
FALCON 9 R/B 2.3 13:45:48 10° WSW 13:47:07 14° SSW 13:47:07 14° SSW
Cosmos 2263 Rocket 3.5 13:42:28 10° NW 13:47:26 34° WSW 13:52:23 10° SSW
Cosmos 783 Rocket 4.4 13:42:43 10° S 13:47:57 73° ESE 13:53:10 10° NNE
Cosmos 2219 Rocket 2.8 13:44:18 16° SSE 13:48:08 34° ESE 13:53:09 10° NE
Cosmos 1461 3.7 13:44:38 10° NW 13:49:16 53° WSW 13:52:40 17° S
Cosmos 2360 Rocket 2.4 13:44:07 10° SSW 13:49:44 76° WNW 13:55:25 10° NNE
Cosmos 1455 2.1 13:50:59 10° N 13:54:50 83° E 13:57:03 24° S
SAR-Lupe-2 3.9 13:51:32 10° NNE 13:55:00 44° E 13:56:19 30° SSE
ATLAS CENTAUR R/B 3.7 13:55:01 10° NNE 13:55:39 10° NE 13:56:17 10° NE
Cosmos 1812 Rocket 3.8 13:51:47 10° NNW 13:56:06 67° W 13:59:29 16° S
Cosmos 2333 Rocket 2.5 13:51:57 13° S 13:56:42 45° ESE 14:02:07 10° NE
Cosmos 1703 3.1 13:54:10 17° S 13:57:02 80° E 14:00:56 10° N
Terra 3.4 13:56:08 17° E 13:58:03 22° ENE 14:01:41 10° NNE
DELTA 2 R/B (1) 4.0 13:54:13 10° SW 13:59:22 39° SSE 14:04:31 10° E
Delta 2 Rocket 2.9 13:56:33 10° WSW 13:59:51 51° S 14:00:39 39° SE
USA 215 3.2 13:54:08 10° NE 14:00:41 74° SE 14:07:12 10° SW
CARTOSAT-1 4.3 14:04:29 28° ESE 14:06:03 38° ENE 14:10:04 10° N
Alouette 2 Rocket 3.8 14:06:22 10° N 14:10:21 63° E 14:12:54 29° SSE
OAO 1 Rocket 4.5 14:05:31 10° W 14:10:45 60° S 14:13:32 27° ESE
IGS 5A 3.4 14:09:44 29° S 14:11:47 86° W 14:15:57 10° NNW
Cosmos 773 Rocket 3.9 14:09:14 10° SSW 14:14:26 82° ESE 14:19:45 10° NNE
ATLAS CENTAUR R/B 4.1 14:15:30 10° WSW 14:16:52 12° SW 14:18:02 11° SSW
ERS-1 Rocket 3.1 14:16:53 32° SE 14:19:02 59° ENE 14:23:59 10° N
Resurs 01 Rocket 3.3 14:15:29 10° SSW 14:19:17 28° W 14:23:05 10° NW
Meteor 1-11 4.1 14:16:34 22° S 14:20:13 74° E 14:25:53 10° NNE
GEOS 3 Rocket 4.5 14:16:05 10° NNE 14:21:20 53° NW 14:26:32 10° SW
ATLAS 5 CENTAUR R/B 3.2 14:19:24 10° WSW 14:23:09 34° NW 14:27:16 10° NNE
Cosmos 2278 Rocket 4.0 14:19:02 10° N 14:23:09 20° NE 14:25:49 15° E
Cosmos 1844 Rocket 2.6 14:23:32 10° NNW 14:29:07 80° WSW 14:31:36 34° SSE
Cosmos-2242 3.3 14:25:34 10° NNW 14:29:52 66° W 14:31:41 33° SSW
Cosmos 1315 Rocket 3.5 14:27:06 10° N 14:30:59 40° ENE 14:31:24 38° E
Cosmos 2181 Rocket 4.0 14:25:51 10° N 14:32:09 67° E 14:34:53 35° SSE
Cosmos 2074 Rocket 4.4 14:30:36 33° SE 14:32:41 44° E 14:38:31 10° NNE
Cosmos 2221 3.7 14:31:05 10° NNE 14:34:48 27° ENE 14:35:06 27° E
SPOT 5 2.9 14:37:00 42° SSE 14:38:45 80° ENE 14:43:39 10° N
Spot 2 Rocket 4.3 14:35:59 23° SSW 14:38:50 45° W 14:43:44 10° NNW
USA 245 4.3 14:38:12 26° SW 14:39:03 30° W 14:42:20 10° NNW
USA 81 4.0 14:37:19 34° S 14:39:42 89° E 14:45:01 10° N
Cosmos 1892 4.3 14:47:10 23° ENE 14:47:10 23° ENE 14:49:21 10° NNE
SPOT 1/Viking Rocket 4.3 14:49:21 28° SSW 14:51:41 46° W 14:56:39 10° NNW
OAO 3 Rocket 3.9 14:48:39 10° W 14:52:51 38° SSW 14:52:51 38° SSW
Cosmos 1400 Rocket 4.2 14:50:33 10° NNW 14:54:04 31° W 14:55:12 26° SW
Cosmos 1680 Rocket 4.1 14:54:36 38° E 14:54:36 38° E 14:59:24 10° NE
Cosmos 2058 3.7 15:00:17 39° ENE 15:00:17 39° ENE 15:03:35 10° NNE
Cosmos 967 Rocket 4.4 14:58:05 27° SSW 15:01:49 80° ESE 15:08:19 10° NNE
Cosmos 1076 Rocket 4.1 15:09:05 44° ENE 15:09:05 44° ENE 15:12:37 10° NNE
Cosmos 1980 3.6 15:09:46 57° SSE 15:10:33 64° ESE 15:16:09 10° NNE
BREEZE-M DEB (TANK) 4.2 15:12:58 23° ENE 15:12:58 23° ENE 15:15:27 10° ENE
Cosmos 923 Rocket 3.9 15:11:09 64° SSE 15:11:51 75° ESE 15:17:08 10° NNE
OAO 2 Rocket 3.5 15:07:51 10° W 15:12:43 57° SSW 15:12:43 57° SSW
NOSS 0 Rocket 3.8 15:11:50 42° SSW 15:14:03 84° ESE 15:20:15 10° NNE
COSMOS 2428 3.5 15:09:51 12° SW 15:14:51 48° WNW 15:20:21 10° NNE
Cosmos 1842 Rocket 3.5 15:16:03 10° N 15:20:21 74° W 15:20:21 74° W
Cosmos 2084 3.6 15:17:38 10° NNW 15:21:58 72° NE 15:21:58 72° NE
MOS 1-B Rocket 4.4 15:19:28 10° NNE 15:26:45 54° E 15:27:53 49° SE
ALOS 2 4.5 15:28:29 20° ENE 15:28:29 20° ENE 15:31:32 10° NNE
Cosmos 2237 Rocket 2.1 15:27:53 63° SSW 15:28:53 85° ESE 15:34:36 10° NNE
Cosmos 2184 Rocket 4.2 15:28:11 40° SSW 15:30:25 66° W 15:36:41 10° N
BREEZE-M (TANK) 4.3 15:27:21 10° WSW 15:31:43 81° NNW 15:51:35 10° ENE
Cosmos 2219 Rocket 3.8 15:27:08 10° WSW 15:32:03 31° WNW 15:37:00 10° N
BREEZE-M R/B 3.5 15:23:27 10° NW 15:32:22 79° SW 15:32:51 72° SSE
Atlas Centaur 2 3.4 15:26:25 10° WSW 15:31:06 35° SSW 15:31:06 35° SSW
ATLAS 2AS CENTAUR R/B 3.6 15:26:41 10° NNW 15:33:46 43° NE 15:36:48 29° E
ATLAS CENTAUR R/B 2.3 15:31:20 10° NW 15:33:46 39° NW 15:33:46 39° NW
Terra 2.8 15:35:01 35° WSW 15:35:32 37° W 15:39:57 10° NNW
Cosmos 1825 3.8 15:38:59 28° NE 15:38:59 28° NE 15:41:02 10° NNE
Cosmos 2333 Rocket 4.2 15:36:30 10° WSW 15:41:09 25° NW 15:45:50 10° N
Meteor 2-2 Rocket 4.4 15:37:55 10° NNW 15:43:39 63° W 15:44:30 56° SW
DELTA 2 R/B (1) 3.4 15:39:56 10° WSW 15:45:32 87° SSE 15:46:34 61° E
Cosmos 2344 3.4 15:46:16 41° SSW 15:49:15 84° ESE 15:57:01 10° NE
Thor Agena Rocket 3.4 15:45:44 10° NNE 15:50:51 83° WNW 15:50:58 82° WSW
Gblst 52 Del rocket 4.4 15:52:38 10° NW 15:58:35 79° NE 15:59:51 59° ESE
Cosmos 1371 Rocket 4.1 15:57:46 10° NNW 16:02:57 66° ENE 16:02:57 66° ENE
Cosmos 2278 Rocket 2.3 16:02:04 10° NNW 16:07:38 60° WSW 16:07:38 60° WSW
Cosmos 2221 4.4 16:08:48 10° NW 16:11:56 22° W 16:11:56 22° W
Cosmos 2341 Rocket 3.8 16:12:14 74° SSW 16:12:52 87° W 16:19:08 10° N
SL-16 R/B 2.2 16:13:23 68° E 16:13:23 68° E 16:18:40 10° NNE
USA 267 3.1 16:12:06 64° SE 16:13:17 87° SW 16:19:52 10° NW
Nadezhda 3 Rocket 4.3 16:07:54 10° NNW 16:14:06 57° W 16:15:01 53° SW
Cosmos 1766 Rocket 4.4 16:15:50 46° NNE 16:15:50 46° NNE 16:19:00 10° NNE
Okean 3 Rocket 4.3 16:17:34 53° N 16:17:34 53° N 16:20:58 10° N
Cosmos 1943 Rocket 4.0 16:12:26 10° N 16:16:47 22° NE 16:18:44 19° E
Spot 4 4.5 16:22:38 49° WNW 16:22:38 49° WNW 16:26:39 10° NNW
Cosmos 2056 Rocket 3.6 16:21:34 10° NNW 16:26:41 79° NNW 16:26:41 79° NNW
Meteor 2-3 Rocket 3.9 16:31:55 62° ENE 16:31:55 62° ENE 16:37:13 10° NNE
SL-8 Rocket 3.8 16:32:30 77° SW 16:32:54 82° W 16:39:06 10° N
Cosmos 1606 4.3 16:30:02 10° N 16:32:18 34° N 16:32:18 34° N
IRIDIUM 104 4.4 16:41:34 71° NW 16:41:34 71° NW 16:46:21 10° N
Meteor 2-12 Rocket 4.3 16:41:18 82° SW 16:41:34 85° W 16:47:43 10° N
COSMOS 2455 4.0 16:38:35 10° NNW 16:44:08 36° NE 16:46:01 30° E
Meteor 1-26 Rocket 4.4 16:39:45 10° N 16:45:44 65° E 16:45:53 65° E
Cosmos 1727 Rocket 4.1 16:42:31 10° N 16:48:43 62° E 16:49:11 61° ESE
Cosmos 1452 Rocket 3.9 16:48:54 10° N 16:53:54 55° ENE 16:53:54 55° ENE
NOSS 3-4 (A) 3.9 16:49:54 10° NW 16:56:59 60° WSW 16:57:34 59° SW
Helios 1A 4.1 16:58:25 42° N 16:58:25 42° N 17:01:13 10° N
NOSS 3-4 (C) 3.9 16:50:00 10° NW 16:57:06 61° WSW 16:57:42 59° SW
Cosmos 2369 Rocket 3.4 16:55:25 10° N 17:00:26 33° ENE 17:01:50 29° E
Resurs 1-4 Rocket 4.5 17:02:42 10° ENE 17:04:13 11° E 17:04:26 11° E
ALOS 2 4.2 17:05:52 28° WNW 17:05:52 28° WNW 17:08:29 10° NNW
SeaSat 1 4.2 17:09:30 10° NE 17:12:14 22° E 17:12:14 22° E
Cosmos 1500 Rocket 4.4 17:16:22 48° N 17:16:22 48° N 17:19:34 10° N
Cosmos 371 Rocket 4.0 17:12:16 10° NNW 17:15:52 47° NW 17:15:52 47° NW
ATLAS 2AS CENTAUR R/B 3.4 17:17:57 10° NW 17:24:13 40° WSW 17:24:13 40° WSW
Helios 1B rocket 3.5 17:27:18 10° NNE 17:30:08 43° N 17:30:08 43° N
DELTA 2 R/B (1) 4.0 17:26:29 10° W 17:33:29 53° E 17:37:45 10° E
Cosmos 1805 Rocket 4.5 17:33:18 45° NNE 17:33:18 45° NNE 17:36:28 10° NNE
CZ-2D R/B 3.8 17:29:16 10° NE 17:33:17 21° E 17:33:36 21° E
ISS -0.8 17:39:18 13° NE 17:39:18 13° NE 17:39:47 10° NE
USA 32 4.1 17:42:16 69° ENE 17:42:16 69° ENE 17:47:20 10° N
Cosmos 1812 4.2 17:42:38 10° N 17:45:09 35° NNE 17:45:09 35° NNE
CZ-4 R/B 4.4 17:42:58 10° N 17:47:01 48° NW 17:47:01 48° NW
Lacrosse 5 3.9 17:51:10 18° E 17:51:10 18° E 17:53:26 10° ENE
Cosmos 1943 3.1 17:50:43 82° W 17:50:50 82° WNW 17:56:32 10° NNE
Cosmos 1821 Rocket 4.1 17:51:56 57° W 17:52:24 59° W 17:58:26 10° N
Cosmos 44 Rocket 3.5 17:55:39 64° N 17:55:39 64° N 17:59:45 10° NNE
RESURS DK-1 3.3 17:52:34 10° NNW 17:55:51 45° NNE 17:55:51 45° NNE
SL-16 R/B 4.3 17:55:14 14° W 17:57:41 17° NW 18:01:24 10° N
Cosmos 494 Rocket 4.3 18:00:16 54° WNW 18:00:16 54° WNW 18:05:19 10° N
Cosmos 2123 Rocket 3.9 17:54:14 10° N 18:00:26 77° E 18:01:27 62° SE
Cosmos 1943 Rocket 2.6 17:55:21 10° NNW 18:00:13 50° W 18:00:13 50° W
Cosmos 1535 Rocket 4.4 18:01:21 69° SSW 18:02:12 87° W 18:08:34 10° N
Cosmos 1707 Rocket 4.0 17:59:28 10° N 18:03:23 60° NE 18:03:23 60° NE
Cosmos 1441 Rocket 4.3 18:07:27 45° NE 18:07:27 45° NE 18:10:24 10° NNE
Cosmos 2228 Rocket 4.5 18:03:54 10° NNW 18:06:54 30° WNW 18:06:54 30° WNW
SL-16 R/B 2.9 18:16:17 34° SE 18:18:56 59° ENE 18:25:04 10° N
Lacrosse 5 rocket 2.4 18:15:53 10° NNW 18:19:31 37° NE 18:19:47 37° NE
Cosmos 1633 Rocket 3.2 18:20:07 69° N 18:20:07 69° N 18:24:01 10° N
Cosmos 1605 Rocket 3.9 18:20:31 60° S 18:21:48 89° E 18:28:10 10° N
Cosmos 1331 Rocket 4.1 18:18:14 10° NNW 18:23:15 62° W 18:23:15 62° W
CZ-4C R/B 3.0 18:16:11 10° NNW 18:23:42 83° ENE 18:30:20 18° SE
Sich 1 4.0 18:24:35 38° NW 18:24:35 38° NW 18:27:57 10° N
Cosmos 1862 Rocket 4.1 18:20:04 10° N 18:24:24 51° E 18:24:42 50° E
SL-24 DEB 4.1 18:23:09 10° N 18:27:53 84° E 18:27:55 84° ESE
COSMOS 2455 3.7 18:24:34 10° NW 18:29:07 34° W 18:29:07 34° W
Iridium 4 Rocket 3.7 18:29:26 63° S 18:30:27 87° W 18:36:15 10° N
IRAS Rocket 4.0 18:30:23 67° SSW 18:31:04 79° WSW 18:36:35 10° NNW
Cosmos 1607 3.9 18:33:12 56° SW 18:34:33 78° WNW 18:40:51 10° NNE
CZ-4B R/B 4.0 18:31:30 10° NNE 18:36:29 50° E 18:37:25 44° SE
Meteor 1-4 Rocket 3.9 18:33:21 10° N 18:36:49 35° ENE 18:37:00 35° E
Meteor 2-20 Rocket 4.4 18:35:39 10° NNW 18:41:44 67° W 18:43:00 54° SSW
Cosmos 292 Rocket 3.8 18:38:06 10° NNW 18:42:54 74° ENE 18:43:50 56° SE
Cosmos 2369 Rocket 3.1 18:39:27 10° NW 18:43:35 31° W 18:43:35 31° W
Resurs 1-4 Rocket 2.0 18:39:16 10° N 18:44:36 81° WNW 18:45:31 62° SSW
SeaSat 1 3.1 18:46:25 10° N 18:51:04 42° WNW 18:52:01 37° W
Cosmos 1933 Rocket 3.4 18:51:49 71° SE 18:52:08 76° E 18:56:28 10° N
ADEOS II 2.7 18:51:24 10° NNE 18:56:29 48° E 18:58:26 33° SSE
Cosmos 389 Rocket 4.4 18:54:00 10° NNW 18:55:35 22° NW 18:55:35 22° NW
Meteor 1-27 Rocket 4.2 18:54:07 10° NNW 18:59:19 41° W 18:59:52 40° WSW
Cosmos 2173 Rocket 4.3 18:56:45 33° SSE 18:59:43 65° E 19:06:01 10° NNE
SL-4 R/B 3.5 19:02:30 19° NNW 19:02:30 19° NNW 19:03:54 10° N
Cosmos 1302 Rocket 4.0 18:56:42 10° NNW 19:01:47 54° WSW 19:02:14 52° SW
Cosmos 1656 Rocket 3.8 18:56:41 10° NW 19:01:50 47° WSW 19:02:06 46° WSW
Meteor 1-25 Rocket 4.1 19:00:53 49° SSW 19:02:27 78° W 19:08:05 10° N
Cosmos 1238 Rocket 4.1 19:02:04 43° SW 19:03:37 53° W 19:09:06 10° N
BREEZE-M DEB (TANK) 4.4 18:58:25 10° W 19:04:38 37° NNW 19:07:38 10° NE
Cosmos 1703 Rocket 4.3 19:01:33 10° N 19:05:55 50° E 19:07:58 28° SE
MOZ.5/SAFIR/RUBIN 5/SL-8 4.5 19:06:23 37° W 19:06:23 37° W 19:10:33 10° NNW
IRS-1D 3.4 19:06:41 10° NNE 19:11:42 85° ESE 19:13:12 46° S
CZ-2D R/B 2.7 19:08:28 10° N 19:13:29 44° WNW 19:14:55 36° WSW
ISS -1.3 19:12:13 14° NW 19:13:34 17° NNW 19:15:55 10° NNE
UNK 4.1 19:13:29 44° WSW 19:13:34 44° W 19:17:58 10° NNW
Cosmos 1500 4.3 19:16:53 28° SE 19:18:13 38° E 19:21:47 10° NNE
DELTA 2 R/B (1) 3.6 19:14:27 18° W 19:18:30 56° SSW 19:23:58 10° SE
COBE Rocket 4.1 19:24:55 19° SSE 19:28:37 74° ENE 19:33:40 10° N
SL-08 R/B 3.9 19:25:26 12° SSE 19:29:37 55° ENE 19:34:16 10° N
Cosmos 1437 Rocket 4.3 19:27:05 10° N 19:30:51 36° ENE 19:34:33 10° SE
Abrixas rocket 3.6 19:31:33 24° NW 19:32:06 26° NNW 19:34:37 10° NE
Lacrosse 5 2.1 19:30:21 35° WSW 19:32:23 64° NW 19:37:27 10° NE
Cosmos 2100 Rocket 4.1 19:29:58 32° SSW 19:32:56 64° W 19:39:11 10° N
COSMOS 2406 4.1 19:29:33 20° SSE 19:33:09 44° ESE 19:38:35 10° NE
Meteor 1-19 Rocket 4.1 19:27:25 10° N 19:33:09 87° W 19:36:55 21° S
Cosmos 1515 3.6 19:29:48 10° N 19:33:37 82° E 19:35:04 36° SSE
Cosmos 1602 4.3 19:34:00 37° W 19:34:17 38° W 19:37:53 10° N
CBERS-1 4.2 19:32:08 10° N 19:37:09 56° WNW 19:39:15 33° SW
Cosmos 2242 Rocket 3.9 19:33:15 10° NNW 19:37:40 48° W 19:38:52 38° SW
Cosmos 1802 Rocket 4.0 19:36:45 27° SSW 19:40:21 75° W 19:46:46 10° N
SEDSat Delta rocket 4.3 19:37:40 28° WSW 19:40:40 44° S 19:46:39 10° ESE
Cosmos 724 4.4 19:37:59 31° SW 19:40:44 63° WNW 19:46:30 10° NNE
IDEFIX/ARIANE 42P 3.4 19:42:14 10° NNE 19:47:15 46° E 19:51:44 13° S
Cosmos 2082 Rocket 4.2 19:45:41 10° SSE 19:50:02 23° E 19:54:23 10° NE
IRS-1C 4.1 19:45:18 10° N 19:50:37 69° WNW 19:53:41 26° SSW
ERS-2 3.9 19:49:58 10° SE 19:53:14 32° ENE 19:56:32 10° N
Cosmos 407 Rocket 3.6 19:50:29 23° S 19:53:54 76° ESE 19:59:15 10° NNE
Spot 4 Rocket 4.3 19:49:34 10° NNE 19:54:43 69° ESE 19:58:43 17° S
BREEZE-M DEB (TANK) 4.3 19:53:18 10° NW 19:56:28 61° NE 20:08:18 10° ESE
Meteor 1-11 Rocket 4.1 19:52:30 13° S 19:57:30 61° E 20:02:57 10° NNE
ATLAS 5 CENTAUR R/B 3.6 19:54:46 10° NNW 19:58:59 75° NE 20:15:19 10° SE
Cosmos 2233 Rocket 4.3 19:54:03 11° S 19:59:58 68° E 20:06:08 10° NNE
ARIANE 5 R/B 2.5 19:55:18 10° N 20:00:21 74° WNW 20:03:43 22° SSW
SL-16 R/B 3.8 20:01:23 19° WSW 20:02:53 20° W 20:07:23 10° NW
Cosmos 2061 Rocket 4.2 20:00:04 21° SSW 20:04:22 58° W 20:10:38 10° N
Aureole 1 Rocket 3.5 20:03:47 18° S 20:06:24 54° ESE 20:10:59 10° NNE
Cosmos 1733 Rocket 3.6 20:02:46 12° S 20:06:44 56° E 20:10:58 10° NNE
Okean 3 3.4 20:03:10 10° N 20:07:22 83° E 20:11:33 10° S
Cosmos 2221 Rocket 3.8 20:03:57 10° N 20:08:23 72° E 20:12:45 10° SSE
CZ-4C R/B 3.9 20:07:50 10° SSE 20:11:03 45° ENE 20:14:12 10° N
Cosmos 1833 Rocket 3.1 20:07:01 14° S 20:11:50 61° ESE 20:17:22 10° NNE
CZ-4C R/B 4.1 20:06:09 10° WNW 20:11:51 22° WSW 20:15:19 17° SW
Cosmos 1140 Rocket 3.5 20:09:58 17° SSW 20:13:59 87° ESE 20:19:13 10° NNE
Cosmos 1725 Rocket 4.1 20:10:22 18° SSW 20:15:01 58° W 20:21:08 10° N
Cosmos 405 Rocket 4.3 20:14:10 18° WSW 20:15:29 22° WNW 20:18:32 10° NNW
Cosmos 1536 2.9 20:12:30 14° S 20:15:59 78° E 20:20:04 10° N
Tsikada Rocket 4.0 20:09:44 10° N 20:16:10 81° W 20:22:34 10° S
SL-8 R/B 3.8 20:14:42 21° SW 20:17:53 66° SE 20:22:37 10° ENE
GPS 2-04 Rocket1 2.8 20:15:52 22° WSW 20:18:02 52° S 20:21:54 10° E
ASTRO E2 3.8 20:19:08 20° SSW 20:20:43 27° S 20:24:04 10° ESE
Resurs 1-4 Rocket 4.4 20:23:19 10° NW 20:23:31 10° WNW 20:23:43 10° WNW
Okean 1-7 4.4 20:21:36 10° NW 20:25:02 23° W 20:26:59 17° WSW
Cosmos 220 Rocket 3.9 20:28:22 10° NNW 20:32:39 86° WSW 20:36:52 10° SSE
ADEOS II 3.7 20:32:01 10° NNW 20:35:48 20° WNW 20:39:22 11° WSW
CZ-2D R/B 4.2 20:32:43 10° N 20:36:51 40° WNW 20:40:25 13° SW
MSX 3.8 20:32:05 10° NNE 20:37:50 87° WNW 20:43:33 10° SSW
H-2A R/B 2.2 20:37:33 10° S 20:41:59 60° WSW 20:46:22 10° NNW
Meteor 1-28 Rocket 4.4 20:41:34 13° SW 20:43:57 22° W 20:46:56 10° NW
Cosmos 2369 4.4 20:41:52 10° NNW 20:47:33 60° ENE 20:53:12 10° SE
Cosmos 1378 4.2 20:48:37 10° N 20:52:16 50° E 20:55:55 10° SSE
Cosmos 1656 3.6 20:46:58 10° NNW 20:52:19 61° WSW 20:57:40 10° S
Meteor 1-23 Rocket 4.3 20:48:10 10° N 20:53:52 85° W 20:59:38 10° S
Cosmos 1464 Rocket 4.4 20:49:01 10° S 20:55:18 70° E 21:01:40 10° NNE
CZ-4B R/B 2.6 20:53:18 10° SSE 20:56:35 47° ENE 20:59:56 10° N
PSLV R/B 3.5 20:53:20 10° N 20:57:38 85° W 21:01:56 10° SSW
Cosmos 1544 4.4 20:56:53 10° SSE 21:00:16 41° E 21:03:40 10° NNE
Cosmos 1743 2.7 20:56:59 10° S 21:00:47 86° W 21:04:36 10° N
PAYLOAD A 4.2 20:55:42 10° NNE 21:00:59 89° WNW 21:06:23 10° SSW
Cosmos 1954 Rocket 4.3 20:59:14 10° SW 21:04:19 52° WNW 21:09:29 10° N
Cosmos 1378 Rocket 3.5 21:00:53 10° N 21:05:16 79° W 21:09:40 10° S
CZ-2C R/B 4.1 21:05:25 10° NNW 21:08:47 26° WNW 21:12:09 10° SW
Cosmos 1980 Rocket 3.3 21:03:17 10° NNW 21:08:51 52° ENE 21:14:22 10° SE
Cosmos 2278 4.4 21:05:52 10° NNW 21:11:34 63° ENE 21:17:13 10° SSE
